OpenBCM V2.0.2 (Linux)

Packet Radio Mailbox

IZ3LSV

[San Dona' di P. JN]

 Login: GUEST





  
OZ1LQH > KEP      17.08.08 16:59l 76 Lines 3129 Bytes #999 (0) @ WW
BID : ARLK061
Read: GUEST
Subj: ARLK061 Keplerian data
Path: IZ3LSV<IW0GPS<I0OJJ<I4UKI<IK1ZNW<7M3TJZ<ON0AR<PI8ZAA<OZ5BBS
Sent: 080817/1423Z @:OZ5BBS.FYN.DNK.EU #:50844 [Odense] $:ARLK061
From: OZ1LQH@OZ5BBS.FYN.DNK.EU
To  : KEP@WW

ZCZC SK61
QST de W1AW  
Keplerian Bulletin 61  ARLK061
From ARRL Headquarters
Newington, CT  August 12, 2008
To all radio amateurs 

SB KEP ARL ARLK061
ARLK061 Keplerian data

Special thanks to AMSAT-NA (AMSAT.ORG) for the following Keplerian
data.

Decode 2-line elsets with the following key:
1 AAAAAU 00  0  0 BBBBB.BBBBBBBB  .CCCCCCCC  00000-0  00000-0 0  DDDZ
2 AAAAA EEE.EEEE FFF.FFFF GGGGGGG HHH.HHHH III.IIII JJ.JJJJJJJJKKKKKZ
KEY: A-CATALOGNUM B-EPOCHTIME C-DECAY D-ELSETNUM E-INCLINATION F-RAAN
G-ECCENTRICITY H-ARGPERIGEE I-MNANOM J-MNMOTION K-ORBITNUM Z-CHECKSUM

AO-07
1 07530U 74089B   08224.75910835 -.00000027  00000-0  10000-3 0  2499
2 07530 101.4628 254.3910 0012064 152.4389 207.7316 12.53573874543944
UO-11
1 14781U 84021B   08224.56990944 -.00000123 +00000-0 -91649-5 0 07437
2 14781 098.1507 259.4214 0008064 252.6595 107.3725 14.79656954312043
AO-16
1 20439U 90005D   08224.48773928 -.00000027  00000-0  53144-5 0  3914
2 20439 098.2344 201.7353 0011486 016.9698 343.1867 14.31799698968833
AO-27
1 22825U 93061C   08224.57649131 -.00000080 +00000-0 -15073-4 0 00395
2 22825 098.3881 182.5326 0009399 097.3855 262.8400 14.29243973775681
IO-26
1 22826U 93061D   08225.46083940  .00000006  00000-0  18758-4 0  7458
2 22826 098.3813 184.2685 0009872 090.1235 270.1073 14.29493832775907
PO-28
1 22829U 93061G   08224.51031448 -.00000072 +00000-0 -11509-4 0 00121
2 22829 098.3691 184.4478 0010697 068.8460 291.3889 14.30193981776034
FO-29
1 24278U 96046B   08224.80889560  .00000016  00000-0  49780-4 0  8367
2 24278 098.5820 133.8120 0351413 071.6194 292.2817 13.52939463591911
GO-32
1 25397U 98043D   08224.65308574 -.00000125  00000-0 -37355-4 0  6695
2 25397 098.3615 257.0674 0002262 085.3396 274.8052 14.23145995524100
ISS
1 25544U 98067A   08225.53991971  .00011344  00000-0  85666-4 0   406
2 25544 051.6417 086.9087 0010433 061.7945 030.5100 15.72969537557401
NO-44
1 26931U 01043C   08224.76715921 +.00000202 +00000-0 +11124-3 0 09506
2 26931 067.0512 141.4748 0007366 266.2126 093.8132 14.29531295358351
SO-50
1 27607U 02058C   08224.46796301 -.00000146 +00000-0 +14821-7 0 06744
2 27607 064.5581 245.7500 0086412 268.7140 090.4057 14.71372180303101
CO-55
1 27844U 03031E   08225.29017398  .00000013  00000-0  26231-4 0  3714
2 27844 098.7160 232.7788 0009449 320.9161 039.1348 14.20591264265402
AO-51
1 28375U 04025K   08224.61309020 -.00000008 +00000-0 +10509-4 0 01724
2 28375 098.0687 246.0604 0084695 345.4155 014.4591 14.40615242216389
VO-52
1 28650U 05017B   08224.31731225 -.00000047 +00000-0 +71725-6 0 00052
2 28650 097.7852 289.4044 0026241 322.9770 036.9626 14.81488377176767
CO-58
1 28895U 05043F   08224.50782266 -.00000036  00000-0  22024-5 0   925
2 28895 098.0924 117.1921 0016905 234.2265 125.7354 14.59687751148556
HO-59
1 29484U 06041F   08170.27591928  .21901596  31637-5  19690-3 0  4662
2 29484 098.2496 292.5583 0013872 275.6258 084.5236 16.51113477 98738

Keplerian bulletins are transmitted twice weekly from W1AW.  The
next scheduled transmission of these data will be Friday, August 15,
2008, 2230z on Baudot and AMTOR.
NNNN


Read previous mail | Read next mail


 04.05.2026 21:18:34lGo back Go up